Preview of NWS' New Version of Forecast
This preview is not operational and should not be used for support decisions.

Regional Weather Roundup (RWR)

Issued by National Weather Service (NWS)

                            
000
ASUS45 KBOU 201010
RWRCO 

WEATHER ROUNDUP FOR COLORADO
NATIONAL WEATHER SERVICE DENVER/BOULDER CO
300 AM MST WED FEB 20 2019

NOTE: "FAIR" INDICATES FEW OR NO CLOUDS BELOW 12000 FEET WITH NO
SIGNIFICANT WEATHER AND/OR OBSTRUCTIONS TO VISIBILITY.

COZ001>005-013-030-031-201100-
...NORTHWEST COLORADO...
  
CITY           SKY/WX    TMP DP  RH WIND       PRES   REMARKS
CRAIG          FAIR       0  -3  87 CALM      29.69F                  
HAYDEN         LGT SNOW   1  -2  85 CALM      29.68S FOG              
MEEKER         FLURRIES   5   0  79 SW3       29.70S                  
RANGELY        FAIR       2  -2  85 E5        29.78R WCI  -8          
RABBIT EARS PA LGT SNOW N/A N/A N/A W13G21    29.38F VSB 1            
STEAMBOAT SPGS CLOUDY     0  -3  88 CALM      29.64F                  
WALDEN         CLOUDY    -2  -9  71 S8        29.52F WCI -17          
$$

COZ006>008-011-201100-
...WEST CENTRAL VALLEYS...
  
CITY           SKY/WX    TMP DP  RH WIND       PRES   REMARKS
GRAND JUNCTION LGT SNOW  18  16  92 N3        29.80R FOG              
MONTROSE       MOCLDY    18   7  62 SE6       29.77F WCI  10          
EAGLE          FAIR      -1  -5  82 SE5       29.69F WCI -11          
RIFLE          CLOUDY    14  10  84 S3        29.75R                  
DELTA          CLOUDY    22  13  67 SW8       29.77S WCI  12          
NUCLA          FAIR      18   9  68 W3        29.81R                  
$$

COZ017>023-064>068-201100-
...SOUTHWEST COLORADO...
  
CITY           SKY/WX    TMP DP  RH WIND       PRES   REMARKS
DURANGO        MOCLDY    -9 -10  96 NE5       29.74F WCI -20          
CORTEZ         CLOUDY    13   9  84 CALM      29.80S                  
PAGOSA SPRINGS FLURRIES N/A N/A N/A CALM      29.70F                  
TELLURIDE      FLURRIES   3   0  85 SE3       29.64F                  
WOLF CREEK PAS CLOUDY    -8 -13  77 S23G32    29.48F WCI -33          
$$

COZ009-010-012-014-032>034-037-058>063-201100-
...CENTRAL COLORADO...
  
CITY           SKY/WX    TMP DP  RH WIND       PRES   REMARKS
ASPEN          LGT SNOW   8   3  80 CALM      29.58F                  
BUENA VISTA    CLOUDY     3  -7  62 CALM      29.54F                  
COPPER MTN     LGT SNOW  -4 -13  65 W20G26    29.32F WCI -27          
BERTHOUD PASS  CLOUDY   -15 -24  64 NW33G44   29.20F WCI -47          
COTTONWOOD PAS MOCLDY     5  -8  56 W12G28    29.43F WCI -11          
GUNNISON       FAIR     -10 -14  82 N5        29.65S WCI -22          
GRANBY         CLOUDY    -3  -6  84 N5        29.55F WCI -13          
KREMMLING      MOCLDY    -9 -15  77 CALM      29.61F                  
LEADVILLE      CLOUDY    -4  -8  83 VRB6      29.44F FOG     WCI -16  
MONARCH PASS   CLOUDY    -6 -13  71 W39G64    29.45F WCI -37          
SALIDA         FAIR      12  -3  51 SW8G20    29.64F WCI   1          
SUNLIGHT       LGT SNOW N/A N/A N/A W7        29.51S VSB 3/4          
WILKERSON PASS FAIR      -6  -9  84 W10G24    29.34F WCI -23          
$$

COZ069>075-201100-
...SAN LUIS VALLEY/SANGRE DE CRISTO MOUNTAINS...
  
CITY           SKY/WX    TMP DP  RH WIND       PRES   REMARKS
ALAMOSA        FAIR       2  -1  88 CALM      29.62F                  
DEL NORTE      FAIR       8  -4  58 W13G18    29.61S WCI  -8          
LA VETA PASS   NOT AVBL                                               
SAGUACHE       FAIR       0  -8  71 CALM      29.62S                  
$$

COZ035-036-038>040-201100-
...NORTHERN COLORADO FRONT RANGE...
  
CITY           SKY/WX    TMP DP  RH WIND       PRES   REMARKS
DENVER INTL AP FAIR       7   4  87 SE8       29.56F WCI  -6          
AURORA         CLEAR      9   7  90 S9        29.56F WCI  -4          
FRONT RANGE AP NOT AVBL                                               
ERIE MUNI ARPT FAIR       8   5  89 CALM      29.63F                  
BOULDER MUN AP FAIR      10   9  92 N3        29.56F                  
CENTENNIAL     FAIR      10   5  80 S6        29.55F WCI   0          
BROOMFIELD     FAIR      21  -4  33 W28G35    29.55F WCI   3          
FORT COLLINS   SNOW      11   8  88 S3        29.60F VSB 1/4          
LONGMONT       FAIR       8   3  80 CALM      29.60F HAZE             
$$

COZ041-046-047-076>085-087-088-201100-
...PIKES PEAK/PALMER DIVIDE AND SOUTHERN FOOTHILLS...
  
CITY           SKY/WX    TMP DP  RH WIND       PRES   REMARKS
COLO. SPRINGS  FAIR       5   1  83 N3        29.56F                  
A. F. ACADEMY  FAIR       1  -4  79 E12       29.53F WCI -16          
SCHRIEVER AFB  NOT AVBL                                               
CHEYENNE MTN   FAIR       9   7  92 NW3       29.47F                  
ELLICOTT         N/A    N/A N/A N/A CALM        N/A                   
FALCON         FAIR       2  -2  81 NW5       29.53F WCI  -7          
FORT CARSON    FAIR       7   3  84 CALM      29.56F                  
LIMON          FAIR      -1  -3  91 N3        29.60F FOG              
MONUMENT HILL  FAIR       1   0  92 S8        29.53F WCI -12          
CANON CITY     NOT AVBL                                               
WALSENBURG     NOT AVBL                                               
TRINIDAD       FAIR      11   8  88 W7        29.62F WCI   0          
$$

COZ042>045-048>051-090-091-201100-
...NORTHEAST COLORADO...
  
CITY           SKY/WX    TMP DP  RH WIND       PRES   REMARKS
GREELEY ARPT   FOG       12  10  92 VRB3      29.62F VSB 1/2          
AKRON          FAIR       5   3  91 W7        29.59F WCI  -7          
BURLINGTON     CLOUDY     8   5  87 SW10      29.64F WCI  -6          
WRAY           MOCLDY    12   9  85 W3        29.66F FOG              
YUMA           FAIR       7   3  85 W6        29.63F WCI  -3          
STERLING       FAIR       5   3  92 W6        29.63F WCI  -6          
HOLYOKE        CLOUDY     7   3  85 W5        29.66F FOG     WCI  -2  
FORT MORGAN      N/A     12  10  91 W8        29.63F FOG     WCI   1  
$$

COZ086-089-092>099-201100-
...SOUTHEAST COLORADO...
  
CITY           SKY/WX    TMP DP  RH WIND       PRES   REMARKS
PUEBLO         FOG        8   5  87 NE6       29.64F VSB 3/4 WCI  -2  
LA JUNTA       CLOUDY    16  13  88 SW5       29.68F WCI   9          
LAMAR          MOCLDY    14  10  84 W7        29.69R WCI   4          
SPRINGFIELD      N/A     17  14  88 NW15      29.65R WCI   2          
$$